CGZMA CYKF-CYHM

Flight info

Callsign CGZMA
Flight time 0h 23m
Altitude 4500
Route VFR FF
Aircraft C152/L-SFG/C

Departure

Time 2026-04-26 16:16
Airport Region of Waterloo International Airport (CYKF)

Arrival

Time 2026-04-26 16:39
Airport John C. Munro Hamilton International Airport (CYHM)
Time Latitude Longitude Altitude Speed Heading
2026-04-26 16:13 43.45944 -80.38045 1030 ft 16 kts 243°
2026-04-26 16:13 43.45884 -80.38221 1030 ft 21 kts 245°
2026-04-26 16:13 43.45828 -80.38393 1030 ft 19 kts 246°
2026-04-26 16:13 43.45775 -80.38546 1030 ft 17 kts 246°
2026-04-26 16:14 43.45725 -80.38688 1030 ft 16 kts 244°
2026-04-26 16:14 43.45682 -80.38816 1030 ft 14 kts 245°
2026-04-26 16:14 43.45767 -80.38939 1032 ft 12 kts 339°
2026-04-26 16:15 43.45823 -80.38897 1033 ft 21 kts 66°
2026-04-26 16:15 43.45946 -80.38536 1075 ft 53 kts 60°
2026-04-26 16:15 43.46113 -80.38080 1252 ft 52 kts 63°
2026-04-26 16:16 43.46127 -80.37084 1575 ft 62 kts 105°
2026-04-26 16:16 43.45979 -80.36545 1812 ft 58 kts 103°
2026-04-26 16:16 43.45829 -80.35993 1930 ft 64 kts 109°
2026-04-26 16:16 43.45582 -80.35491 2099 ft 65 kts 126°
2026-04-26 16:17 43.45273 -80.35035 2187 ft 65 kts 126°
2026-04-26 16:17 43.44902 -80.34658 2348 ft 69 kts 139°
2026-04-26 16:17 43.44482 -80.34347 2506 ft 71 kts 145°
2026-04-26 16:17 43.44072 -80.34042 2623 ft 64 kts 139°
2026-04-26 16:18 43.43697 -80.33731 2793 ft 63 kts 140°
2026-04-26 16:18 43.42945 -80.33155 2956 ft 59 kts 140°
2026-04-26 16:19 43.42163 -80.32726 3053 ft 60 kts 138°
2026-04-26 16:19 43.41760 -80.32514 3242 ft 65 kts 148°
2026-04-26 16:19 43.41104 -80.32060 3514 ft 67 kts 141°
2026-04-26 16:20 43.40541 -80.31621 3601 ft 77 kts 137°
2026-04-26 16:20 43.39508 -80.30941 3556 ft 86 kts 151°
2026-04-26 16:20 43.38960 -80.30671 3525 ft 82 kts 149°
2026-04-26 16:21 43.38446 -80.30338 3542 ft 82 kts 142°
2026-04-26 16:21 43.37940 -80.30001 3544 ft 81 kts 143°
2026-04-26 16:21 43.37432 -80.29647 3549 ft 82 kts 140°
2026-04-26 16:21 43.36926 -80.29283 3526 ft 82 kts 141°
2026-04-26 16:22 43.36417 -80.28948 3501 ft 81 kts 142°
2026-04-26 16:22 43.35915 -80.28596 3447 ft 84 kts 152°
2026-04-26 16:22 43.35386 -80.28306 3502 ft 82 kts 141°
2026-04-26 16:22 43.34877 -80.27930 3487 ft 82 kts 143°
2026-04-26 16:23 43.34397 -80.27575 3456 ft 76 kts 138°
2026-04-26 16:23 43.33976 -80.27214 3487 ft 69 kts 135°
2026-04-26 16:23 43.33585 -80.26842 3521 ft 68 kts 136°
2026-04-26 16:23 43.33172 -80.26525 3521 ft 65 kts 139°
2026-04-26 16:24 43.32800 -80.26217 3587 ft 60 kts 135°
2026-04-26 16:24 43.32419 -80.25927 3555 ft 64 kts 137°
2026-04-26 16:24 43.32036 -80.25606 3557 ft 64 kts 134°
2026-04-26 16:24 43.31677 -80.25266 3557 ft 64 kts 133°
2026-04-26 16:25 43.31294 -80.24889 3531 ft 68 kts 131°
2026-04-26 16:25 43.30947 -80.24471 3518 ft 66 kts 126°
2026-04-26 16:25 43.30621 -80.24005 3484 ft 66 kts 124°
2026-04-26 16:25 43.30248 -80.23653 3492 ft 65 kts 139°
2026-04-26 16:26 43.29838 -80.23379 3482 ft 65 kts 139°
2026-04-26 16:26 43.29575 -80.23179 3453 ft 66 kts 138°
2026-04-26 16:26 43.29078 -80.22747 3469 ft 60 kts 134°
2026-04-26 16:26 43.28739 -80.22428 3493 ft 59 kts 135°
2026-04-26 16:27 43.28384 -80.22114 3500 ft 62 kts 139°
2026-04-26 16:27 43.28027 -80.21793 3510 ft 62 kts 134°
2026-04-26 16:27 43.27681 -80.21421 3511 ft 63 kts 130°
2026-04-26 16:27 43.27321 -80.21089 3542 ft 61 kts 139°
2026-04-26 16:28 43.26935 -80.20828 3521 ft 62 kts 140°
2026-04-26 16:28 43.26556 -80.20575 3523 ft 59 kts 137°
2026-04-26 16:28 43.26207 -80.20288 3508 ft 58 kts 133°
2026-04-26 16:28 43.25892 -80.19953 3498 ft 57 kts 127°
2026-04-26 16:29 43.25616 -80.19579 3516 ft 56 kts 117°
2026-04-26 16:29 43.25365 -80.19148 3526 ft 58 kts 118°
2026-04-26 16:29 43.25093 -80.18728 3528 ft 61 kts 122°
2026-04-26 16:29 43.24782 -80.18320 3522 ft 62 kts 126°
2026-04-26 16:30 43.24477 -80.17921 3513 ft 61 kts 123°
2026-04-26 16:30 43.24177 -80.17510 3499 ft 62 kts 126°
2026-04-26 16:30 43.23841 -80.17153 3524 ft 59 kts 130°
2026-04-26 16:30 43.23509 -80.16837 3519 ft 57 kts 130°
2026-04-26 16:31 43.23192 -80.16494 3500 ft 58 kts 130°
2026-04-26 16:31 43.22890 -80.16141 3515 ft 56 kts 126°
2026-04-26 16:31 43.22624 -80.15742 3517 ft 58 kts 121°
2026-04-26 16:31 43.22355 -80.15324 3525 ft 58 kts 121°
2026-04-26 16:32 43.22092 -80.14905 3536 ft 57 kts 117°
2026-04-26 16:32 43.21936 -80.14620 3526 ft 59 kts 117°
2026-04-26 16:32 43.21613 -80.14007 3519 ft 61 kts 116°
2026-04-26 16:32 43.21377 -80.13510 3488 ft 65 kts 115°
2026-04-26 16:33 43.21116 -80.13002 3447 ft 65 kts 119°
2026-04-26 16:33 43.20828 -80.12536 3402 ft 65 kts 122°
2026-04-26 16:33 43.20526 -80.12060 3330 ft 66 kts 121°
2026-04-26 16:33 43.20245 -80.11581 3311 ft 63 kts 119°
2026-04-26 16:34 43.19984 -80.11096 3254 ft 63 kts 117°
2026-04-26 16:34 43.19730 -80.10603 3196 ft 63 kts 116°
2026-04-26 16:34 43.19475 -80.10106 3134 ft 64 kts 116°
2026-04-26 16:34 43.19225 -80.09607 3081 ft 64 kts 115°
2026-04-26 16:35 43.18993 -80.09100 3013 ft 63 kts 111°
2026-04-26 16:35 43.18755 -80.08589 2970 ft 63 kts 115°
2026-04-26 16:35 43.18508 -80.08085 2892 ft 64 kts 114°
2026-04-26 16:35 43.18274 -80.07570 2829 ft 64 kts 111°
2026-04-26 16:36 43.18049 -80.07064 2750 ft 62 kts 111°
2026-04-26 16:36 43.17808 -80.06561 2621 ft 65 kts 116°
2026-04-26 16:36 43.17504 -80.06089 2494 ft 68 kts 124°
2026-04-26 16:36 43.17194 -80.05604 2312 ft 67 kts 117°
2026-04-26 16:37 43.16911 -80.05093 2090 ft 70 kts 116°
2026-04-26 16:37 43.16654 -80.04537 1902 ft 68 kts 104°
2026-04-26 16:37 43.16468 -80.03939 1674 ft 71 kts 107°
2026-04-26 16:37 43.16294 -80.03554 1529 ft 72 kts 112°
2026-04-26 16:38 43.15915 -80.02845 1382 ft 68 kts 114°
2026-04-26 16:38 43.15630 -80.02336 1305 ft 67 kts 115°
2026-04-26 16:38 43.15403 -80.01793 1284 ft 65 kts 110°
2026-04-26 16:38 43.15178 -80.01281 1298 ft 62 kts 113°
2026-04-26 16:39 43.14931 -80.00805 1311 ft 57 kts 109°
2026-04-26 16:39 43.14812 -80.00426 1491 ft 33 kts 73°
2026-04-26 16:39 43.14927 -79.99934 1428 ft 70 kts 66°
2026-04-26 16:39 43.15068 -79.99269 1550 ft 72 kts 71°
2026-04-26 16:40 43.15205 -79.98540 1521 ft 83 kts 77°
2026-04-26 16:40 43.15249 -79.97827 1515 ft 68 kts 82°
2026-04-26 16:40 43.15267 -79.97198 1468 ft 65 kts 77°
2026-04-26 16:40 43.15334 -79.96601 1392 ft 62 kts 70°
2026-04-26 16:41 43.15442 -79.96024 1301 ft 63 kts 69°
2026-04-26 16:41 43.15602 -79.95455 1197 ft 62 kts 59°
2026-04-26 16:41 43.15805 -79.94961 1116 ft 58 kts 56°
2026-04-26 16:41 43.16007 -79.94540 1053 ft 45 kts 48°
2026-04-26 16:42 43.16202 -79.94194 988 ft 49 kts 48°
2026-04-26 16:42 43.16444 -79.93836 913 ft 55 kts 47°
2026-04-26 16:42 43.16693 -79.93443 806 ft 55 kts 47°
2026-04-26 16:42 43.16887 -79.93139 773 ft 29 kts 44°
2026-04-26 16:43 43.16998 -79.92966 771 ft 23 kts 48°
2026-04-26 16:43 43.17042 -79.92843 772 ft 10 kts 136°
2026-04-26 16:43 43.16986 -79.92800 773 ft 9 kts 151°
2026-04-26 16:43 43.16938 -79.92762 773 ft 7 kts 148°
2026-04-26 16:44 43.16895 -79.92726 773 ft 7 kts 155°
2026-04-26 16:44 43.16869 -79.92710 774 ft 6 kts 154°
2026-04-26 16:44 43.16837 -79.92687 774 ft 4 kts 151°
2026-04-26 16:44 43.16819 -79.92673 775 ft 1 kts 146°
2026-04-26 16:45 43.16813 -79.92667 775 ft 5 kts 146°
2026-04-26 16:45 43.16749 -79.92611 776 ft 17 kts 147°
2026-04-26 16:45 43.16641 -79.92528 777 ft 16 kts 148°
2026-04-26 16:45 43.16571 -79.92509 776 ft 10 kts 199°
2026-04-26 16:46 43.16520 -79.92568 775 ft 10 kts 248°
2026-04-26 16:46 43.16529 -79.92660 774 ft 10 kts 289°
2026-04-26 16:46 43.16550 -79.92747 775 ft 9 kts 288°
2026-04-26 16:46 43.16569 -79.92830 774 ft 9 kts 289°
2026-04-26 16:47 43.16588 -79.92913 773 ft 9 kts 285°
2026-04-26 16:47 43.16609 -79.93001 773 ft 10 kts 289°
2026-04-26 16:47 43.16629 -79.93090 773 ft 9 kts 287°
2026-04-26 16:47 43.16637 -79.93167 774 ft 7 kts 253°
2026-04-26 16:48 43.16618 -79.93216 775 ft 5 kts 223°
2026-04-26 16:48 43.16593 -79.93250 775 ft 7 kts 229°
2026-04-26 16:48 43.16551 -79.93325 774 ft 13 kts 231°
2026-04-26 16:48 43.16473 -79.93443 772 ft 19 kts 227°
2026-04-26 16:49 43.16387 -79.93532 768 ft 9 kts 145°
2026-04-26 16:49 43.16389 -79.93470 770 ft 4 kts 75°